Location: Rochester
(43.1610°N, 77.6109°W)
Time: 01:45:26
(UTC-05:00)

CAS-4A - Pass Details

Date: 22 October 2021
Orbit: 529 x 539 km, 43.0° (Epoch: 30 November)

Event Time Altitude Azimuth Distance (km) Brightness Sun altitude
Rises 21:15:02 0° 279° (W) 2,686 ? -33.1°
Reaches altitude 10° 21:17:35 10° 265° (W) 1,791 ? -33.5°
Enters shadow 21:18:23 14° 258° (WSW) 1,551 ? -33.7°
